[[{"header":{"parameterUnit":"m.s-1","parameterCategory":2,"la1":30.2991,"la2":30.254,"lo1":-89.0895,"lo2":-89.0444,"dy":0.0017,"dx":0.0017,"nx":28,"ny":28,"refTime":"2025-05-01T03:00:00:Z","depth":"0","parameterNumber":2,"parameterNumberName":"U-component_of_CURRENTS"},"data":[0,0,0,0,0,0,0,0,0,0,0,0,0,0,0,0,0,0,0,0,0,0,0,0,0,0,0,0,0,0,0,0,0,0,0,0,0,0,0,0,0,0,0,0,0,0,0,0,0,0,0,0,0,0,0,0,0,0,0.2973,0.2973,0,0.301,0.3011,0.3011,0.3003,0.3003,0.3002,0.3002,0.3008,0.3009,0.3009,0,0,0,0,0,0,0,0,0,0,0,0,0,0.2908,0.2908,0.2973,0.2973,0.2974,0.301,0.3011,0.3011,0.3003,0.3003,0.3002,0.3002,0.3008,0.3009,0.3009,0,0,0,0,0,0,0,0,0,0,0,0,0,0.2936,0.2909,0.2972,0.2977,0.2978,0.301,0.3011,0.3011,0.3003,0.3003,0.3002,0.3002,0.3008,0.3009,0.3009,0.3026,0,0,0.3012,0.3012,0,0,0,0,0,0,0,0,0.2935,0.2938,0.2976,0.2977,0.2978,0.3004,0.299,0.3015,0.3004,0.299,0.3002,0.3001,0.3007,0.3007,0.3012,0.3026,0.3026,0.3012,0.3012,0.3013,0.3013,0,0,0,0,0,0,0,0.2933,0.2937,0.2984,0.2977,0.2978,0.2982,0.2985,0.2995,0.2998,0.2991,0.2992,0.3001,0.3006,0.3011,0.3012,0.3026,0.3012,0.3012,0.3013,0.3013,0.3096,0.3097,0,0,0,0,0,0,0.2935,0.2935,0.2983,0.2986,0.2958,0.2984,0.2987,0.2994,0.2999,0.3,0.3002,0.3001,0.301,0.3011,0.3012,0.3063,0.3013,0.3013,0.3014,0.3094,0.3096,0.3098,0,0,0,0,0,0,0.2933,0.2939,0.2982,0.2964,0.297,0.2986,0.2993,0.2995,0.3004,0.3008,0.3007,0.301,0.3009,0.3011,0.3036,0.3062,0.3014,0.3014,0.3092,0.3095,0.3097,0.3145,0,0,0,0,0,0,0.2931,0.2938,0.2943,0.2964,0.2971,0.3013,0.2994,0.2996,0.3012,0.3011,0.3015,0.3014,0.3009,0.3035,0.3037,0.3062,0.3015,0.309,0.3093,0.3096,0.3141,0.3148,0.3155,0,0,0,0,0,0.2929,0.294,0.2943,0.2949,0.2978,0.3014,0.3019,0.3025,0.3013,0.3028,0.3032,0.3014,0.3057,0.3038,0.3039,0.3064,0.3088,0.3092,0.3096,0.3138,0.3147,0.3155,0,0,0,0,0,0,0.2914,0.2942,0.2945,0.2963,0.2993,0.3014,0.3029,0.3031,0.3045,0.3041,0.3035,0.3036,0.3071,0.3064,0.3043,0.31,0.3071,0.3075,0.3102,0.3111,0.3118,0.3119,0.3016,0,0,0,0,0,0.2915,0.293,0.2961,0.2978,0.2993,0.3011,0.3025,0.3033,0.305,0.3054,0.3057,0.3066,0.3089,0.3096,0.3112,0.3139,0.3147,0.3158,0.3166,0.3171,0.3176,0.3216,0.3226,0.3111,0.3111,0.3111,0,0,0.2913,0.2932,0.2939,0.2976,0.2995,0.3025,0.3017,0.3047,0.307,0.3054,0.3081,0.3093,0.3104,0.314,0.3154,0.3135,0.3212,0.3176,0.3181,0.3182,0.3221,0.3232,0.3242,0.3113,0.3113,0.3112,0,0,0.2922,0.2937,0.2954,0.2983,0.3021,0.3038,0.3049,0.3079,0.3091,0.3123,0.3124,0.3152,0.3173,0.3193,0.3204,0.326,0.3252,0.3266,0.3296,0.3335,0.3345,0.3353,0.3387,0.3398,0.3264,0.3264,0.3264,0,0.292,0.2942,0.2967,0.2997,0.3021,0.3046,0.3073,0.3099,0.3132,0.3152,0.3138,0.3196,0.32,0.3256,0.3274,0.3276,0.3294,0.326,0.3344,0.3352,0.336,0.3393,0.3404,0.3267,0.3266,0.3266,0.3266,0,0.2945,0.2965,0.2983,0.3025,0.3057,0.3087,0.3129,0.3161,0.3173,0.3196,0.3252,0.3267,0.33,0.3311,0.3307,0.3372,0.3367,0.3351,0.3318,0.3374,0.3406,0.3417,0.327,0.3269,0.3269,0.3268,0,0,0.2928,0.2986,0.2989,0.3009,0.3072,0.3097,0.3154,0.3209,0.324,0.3278,0.3323,0.3367,0.3376,0.339,0.3398,0.3427,0.3497,0.3412,0.3413,0.3439,0.3587,0.3591,0.3603,0.3496,0.3498,0.35,0.359,0,0.2937,0.298,0.3014,0.3057,0.3083,0.3134,0.318,0.3236,0.3279,0.3331,0.3373,0.3416,0.3408,0.3424,0.346,0.3493,0.3528,0.3474,0.3535,0.3536,0.3528,0.3617,0.3564,0.3641,0.3601,0.3602,0.3604,0,0.2944,0.2973,0.3009,0.3066,0.3082,0.3112,0.3188,0.3235,0.3327,0.3363,0.3428,0.3461,0.3535,0.3503,0.3599,0.3567,0.3583,0.3598,0.3602,0.3595,0.3562,0.3578,0.3662,0.3633,0.3621,0.3619,0.3618,0,0.2906,0.2966,0.2986,0.3009,0.3083,0.3108,0.3149,0.3237,0.3294,0.3385,0.3448,0.352,0.3582,0.3616,0.3672,0.3637,0.3769,0.3719,0.374,0.374,0.3702,0.3695,0.3758,0.3779,0.3779,0.3779,0.3778,0,0.2897,0.2913,0.2964,0.2977,0.3006,0.3072,0.312,0.318,0.3289,0.3361,0.3456,0.3539,0.3615,0.3706,0.3711,0.3788,0.3809,0.3772,0.3775,0.3719,0.3713,0.3688,0.3639,0.3782,0.3781,0.3781,0.378,0,0.285,0.2885,0.2908,0.2968,0.2985,0.3002,0.31,0.3145,0.3263,0.3369,0.341,0.3587,0.3706,0.3787,0.3863,0.3861,0.3822,0.3914,0.3846,0.384,0.3799,0.3754,0.3611,0.3505,0.3942,0.3942,0.3943,0,0.2831,0.2836,0.2879,0.2888,0.2909,0.2952,0.2986,0.3104,0.3168,0.3389,0.3441,0.3628,0.3744,0.3906,0.3934,0.3985,0.386,0.3948,0.3862,0.3821,0.3773,0.3565,0.347,0.3833,0.3833,0.3833,0.3832,0,0.2797,0.2803,0.2822,0.2842,0.2862,0.2891,0.2954,0.3006,0.3156,0.3277,0.3441,0.3564,0.3778,0.3851,0.3966,0.3969,0.3796,0.3943,0.3922,0.3723,0.3478,0.3371,0.3747,0.383,0.3831,0.3831,0.3831,0.3831,0.2768,0.2763,0.2788,0.2798,0.2814,0.2825,0.2825,0.2917,0.3016,0.3167,0.3342,0.3501,0.3753,0.3921,0.3898,0.3906,0.3773,0.3841,0.3801,0.3602,0.3459,0.3836,0.3907,0.3908,0.3909,0.3909,0.3909,0,0.275,0.2747,0.2752,0.2751,0.2729,0.2764,0.2801,0.279,0.2852,0.3042,0.3176,0.3461,0.3624,0.3777,0.3913,0.3819,0.3583,0.3732,0.3449,0.3368,0.3764,0.3726,0.3735,0.3735,0.3735,0.3735,0.3735,0.3735,0.2744,0.2733,0.2726,0.2673,0.2659,0.26,0.2593,0.2594,0.269,0.2825,0.2983,0.3166,0.356,0.3858,0.3879,0.3769,0.3481,0.3335,0.3259,0.3611,0.3618,0.3624,0.3581,0.3559,0.3559,0.2756,0.2751,0.2747]},{"header":{"parameterUnit":"m.s-1","parameterCategory":2,"la1":30.2991,"la2":30.254,"lo1":-89.0895,"lo2":-89.0444,"dy":0.0017,"dx":0.0017,"nx":28,"ny":28,"refTime":"2025-05-01T03:00:00:Z","depth":"0","parameterNumber":3,"parameterNumberName":"V-component_of_CURRENTS"},"data":[0,0,0,0,0,0,0,0,0,0,0,0,0,0,0,0,0,0,0,0,0,0,0,0,0,0,0,0,0,0,0,0,0,0,0,0,0,0,0,0,0,0,0,0,0,0,0,0,0,0,0,0,0,0,0,0,0,0,0.0274,0.0273,0,0.0201,0.02,0.0199,0.0147,0.0146,0.0146,0.0146,0.0029,0.0026,0.0024,0,0,0,0,0,0,0,0,0,0,0,0,0,0.0303,0.0303,0.0274,0.0273,0.0272,0.0201,0.02,0.0199,0.0147,0.0146,0.0146,0.0146,0.003,0.0027,0.0023,0,0,0,0,0,0,0,0,0,0,0,0,0,0.0265,0.0303,0.0274,0.0239,0.0235,0.0201,0.02,0.0199,0.0147,0.0146,0.0146,0.0146,0.0031,0.0027,0.0023,0.0005,0,0,0.001,0.0008,0,0,0,0,0,0,0,0,0.0267,0.0264,0.0245,0.0241,0.0237,0.0184,0.0167,0.0132,0.0147,0.0179,0.0146,0.0145,0.0078,0.007,0.0056,-0.0,-0.0005,0.0009,0.0007,0.0005,0.0004,0,0,0,0,0,0,0,0.027,0.0266,0.0243,0.0244,0.0239,0.0205,0.0199,0.016,0.013,0.0176,0.0172,0.0167,0.0075,0.006,0.0052,-0.0007,0.001,0.0006,0.0003,0.0001,-0.0084,-0.0084,0,0,0,0,0,0,0.0286,0.0269,0.0246,0.0241,0.0253,0.0205,0.0199,0.02,0.0131,0.0121,0.0167,0.0165,0.0067,0.0057,0.0048,0.0038,0.0005,0.0001,-0.0001,-0.0085,-0.0084,-0.0084,0,0,0,0,0,0,0.0287,0.0285,0.0249,0.0254,0.0247,0.0206,0.0207,0.0199,0.0185,0.0125,0.0114,0.0162,0.0067,0.0054,0.0021,0.0032,-0.0001,-0.0005,-0.0085,-0.0084,-0.0084,0.0007,0,0,0,0,0,0,0.0288,0.0286,0.0291,0.0256,0.0248,0.024,0.0207,0.0198,0.0183,0.0179,0.0117,0.0106,0.0065,0.0028,0.0017,0.0026,-0.0008,-0.0085,-0.0085,-0.0084,0.0004,0.0011,0.0017,0,0,0,0,0,0.029,0.0306,0.0292,0.0289,0.0257,0.0241,0.0234,0.02,0.0183,0.0185,0.0142,0.0108,0.0024,0.0025,0.0012,0.002,-0.0085,-0.0085,-0.0084,0.0001,0.001,0.0017,0,0,0,0,0,0,0.032,0.0301,0.0285,0.0294,0.0273,0.0233,0.0232,0.0207,0.0175,0.0171,0.0111,0.0097,0.0072,0.0033,0.0036,-0.0005,-0.0037,-0.0039,0.0032,0.004,0.0046,0.0068,-0.0012,0,0,0,0,0,0.033,0.0337,0.031,0.0315,0.031,0.0271,0.0259,0.0239,0.0206,0.0191,0.0149,0.0103,0.0064,0.0043,0.0003,-0.0018,-0.0055,-0.0023,-0.0017,-0.0011,-0.0002,-0.0051,-0.0047,-0.0082,-0.0082,-0.0082,0,0,0.0342,0.0333,0.0335,0.0322,0.0302,0.0307,0.0263,0.0255,0.0257,0.0183,0.0173,0.0123,0.0062,0.0041,0.0025,0.001,-0.0019,-0.001,-0.0004,0.0001,-0.005,-0.0046,-0.0043,-0.0081,-0.0081,-0.0082,0,0,0.0376,0.0364,0.0384,0.0375,0.0357,0.0336,0.0339,0.0306,0.0289,0.0269,0.0218,0.018,0.0121,0.0083,0.0055,0.0071,0.0016,0.0055,0.0106,0.0059,0.0062,0.0064,0.0032,0.003,0.0059,0.0059,0.006,0,0.0389,0.0413,0.0385,0.0404,0.0407,0.0356,0.0381,0.0356,0.0316,0.0308,0.0279,0.0195,0.0142,0.0113,0.0117,0.0086,0.0054,0.0085,0.0069,0.007,0.007,0.0036,0.0033,0.0064,0.0063,0.0063,0.0062,0,0.0441,0.0458,0.0471,0.048,0.0478,0.049,0.0461,0.0452,0.0421,0.0392,0.0356,0.0281,0.0234,0.0207,0.0164,0.0143,0.0119,0.0084,0.0055,0.008,0.0042,0.0037,0.007,0.0069,0.0067,0.0066,0,0,0.0475,0.0504,0.0508,0.0533,0.0524,0.0532,0.0536,0.0527,0.0536,0.0476,0.0478,0.0394,0.0349,0.0314,0.0252,0.0205,0.0178,0.0153,0.0149,0.0132,0.0086,0.0072,0.0065,0.014,0.0139,0.0139,0.0063,0,0.0524,0.0586,0.0582,0.0636,0.0668,0.0637,0.065,0.0632,0.0599,0.0586,0.05,0.0471,0.0391,0.0371,0.0313,0.0212,0.0167,0.0202,0.0055,0.0051,0.0044,0.006,0.0089,0.0024,0.0057,0.0057,0.0056,0,0.0576,0.0615,0.0682,0.0731,0.0742,0.076,0.0778,0.0781,0.0741,0.0714,0.0661,0.0596,0.0522,0.045,0.0295,0.0321,0.0216,0.0131,0.0125,0.0078,0.0028,0.0001,0.0014,-0.0147,0.0048,0.0048,0.0049,0,0.0623,0.0684,0.0746,0.0761,0.0801,0.0823,0.0835,0.0818,0.0845,0.0792,0.0807,0.0692,0.0654,0.0502,0.0328,0.0311,0.0158,0.011,-0.0,-0.0002,-0.0024,-0.0026,-0.0174,0.0004,0.0004,0.0004,0.0004,0,0.0678,0.0727,0.0775,0.081,0.0887,0.0884,0.0952,0.0936,0.0946,0.1,0.088,0.0895,0.0665,0.0554,0.0372,0.0182,0.019,0.0016,-0.0023,0.001,0.0011,-0.0168,-0.0291,0.0001,0.0002,0.0002,0.0003,0,0.0715,0.0745,0.0826,0.0888,0.0912,0.0963,0.1045,0.1097,0.1084,0.115,0.1147,0.105,0.0902,0.0675,0.043,0.026,-0.0046,-0.0009,0.0052,0.0022,-0.0233,-0.0352,-0.0561,-0.0672,-0.0143,-0.0143,-0.0144,0,0.074,0.0785,0.0885,0.0946,0.0977,0.1058,0.1126,0.1152,0.1223,0.1259,0.1308,0.1192,0.1144,0.0781,0.0442,0.0128,-0.0065,-0.0055,-0.0093,-0.0237,-0.0399,-0.0471,-0.0555,-0.0084,-0.0084,-0.0084,-0.0085,0,0.0793,0.0826,0.0897,0.1026,0.1113,0.1221,0.1321,0.1404,0.1457,0.1523,0.1582,0.1548,0.1212,0.0911,0.0471,0.0232,-0.0184,-0.0067,-0.024,-0.0383,-0.045,-0.0576,-0.004,-0.0085,-0.0085,-0.0085,-0.0085,-0.0085,0.0833,0.0896,0.1,0.1122,0.123,0.1375,0.1481,0.1604,0.1741,0.1863,0.1809,0.1828,0.1383,0.0787,0.0419,-0.0172,-0.0214,-0.0329,-0.0465,-0.0524,-0.0628,-0.0084,-0.0161,-0.0161,-0.0161,-0.0161,-0.0162,0,0.0896,0.0977,0.1095,0.1251,0.1382,0.1426,0.1613,0.1734,0.1916,0.2048,0.2108,0.1974,0.1395,0.0808,-0.0004,-0.0451,-0.0641,-0.0703,-0.0802,-0.0876,-0.0399,-0.039,-0.0491,-0.0491,-0.049,-0.049,-0.049,-0.049,0.0937,0.1062,0.113,0.1356,0.1465,0.1648,0.1762,0.1938,0.209,0.229,0.2377,0.2407,0.2033,0.0485,-0.0531,-0.0808,-0.1145,-0.1217,-0.1406,-0.1073,-0.1047,-0.1023,-0.104,-0.1276,-0.1277,-0.1794,-0.18,-0.1804]}],[{"header":{"parameterUnit":"m.s-1","parameterCategory":2,"la1":30.2991,"la2":30.254,"lo1":-89.0895,"lo2":-89.0444,"dy":0.0017,"dx":0.0017,"nx":28,"ny":28,"refTime":"2025-05-01T03:00:00:Z","depth":"2","parameterNumber":2,"parameterNumberName":"U-component_of_CURRENTS"},"data":[0,0,0,0,0,0,0,0,0,0,0,0,0,0,0,0,0,0,0,0,0,0,0,0,0,0,0,0,0,0,0,0,0,0,0,0,0,0,0,0,0,0,0,0,0,0,0,0,0,0,0,0,0,0,0,0,0,0,0.287,0.287,0,0.2908,0.2908,0.2909,0.2908,0.2907,0.2907,0.2907,0.292,0.292,0.2921,0,0,0,0,0,0,0,0,0,0,0,0,0,0.2804,0.2805,0.2869,0.287,0.2871,0.2908,0.2908,0.2909,0.2908,0.2907,0.2907,0.2907,0.2919,0.292,0.2921,0,0,0,0,0,0,0,0,0,0,0,0,0,0.2834,0.2806,0.2869,0.2877,0.2879,0.2908,0.2908,0.2909,0.2908,0.2907,0.2907,0.2907,0.2919,0.292,0.2921,0.2933,0,0,0.2923,0.2924,0,0,0,0,0,0,0,0,0.2832,0.2836,0.2875,0.2877,0.2878,0.2906,0.289,0.2917,0.2908,0.2893,0.2907,0.2906,0.2915,0.2916,0.292,0.2934,0.2934,0.2924,0.2924,0.2924,0.2925,0,0,0,0,0,0,0,0.283,0.2834,0.2881,0.2876,0.2878,0.2883,0.2886,0.2895,0.2903,0.2894,0.2895,0.2905,0.2915,0.2919,0.292,0.2934,0.2923,0.2924,0.2925,0.2925,0.3008,0.301,0,0,0,0,0,0,0.2832,0.2832,0.288,0.2883,0.2858,0.2884,0.2888,0.2895,0.2903,0.2905,0.2905,0.2905,0.2918,0.2919,0.2921,0.2975,0.2924,0.2925,0.2926,0.3006,0.3008,0.301,0,0,0,0,0,0,0.283,0.2836,0.2879,0.2861,0.2867,0.2886,0.2893,0.2896,0.2908,0.2912,0.2913,0.2916,0.2918,0.2919,0.2947,0.2974,0.2926,0.2926,0.3004,0.3007,0.3009,0.3058,0,0,0,0,0,0,0.2828,0.2835,0.2841,0.2861,0.2869,0.291,0.2894,0.2897,0.2915,0.2915,0.2922,0.2922,0.2917,0.2946,0.2948,0.2974,0.2927,0.3002,0.3005,0.3008,0.3054,0.3062,0.3068,0,0,0,0,0,0.2825,0.2837,0.2841,0.2848,0.2877,0.2911,0.2916,0.2925,0.2916,0.2932,0.2938,0.2922,0.2967,0.2948,0.295,0.2977,0.3001,0.3005,0.3008,0.3051,0.306,0.3068,0,0,0,0,0,0,0.2812,0.2839,0.2844,0.2863,0.2892,0.2913,0.2928,0.2932,0.2948,0.2947,0.2942,0.2944,0.2981,0.2975,0.2953,0.3012,0.2983,0.2987,0.3014,0.3023,0.303,0.3031,0.2928,0,0,0,0,0,0.2814,0.283,0.2859,0.2877,0.2892,0.2911,0.2925,0.2935,0.2952,0.2958,0.2964,0.2975,0.2998,0.3006,0.3023,0.305,0.3057,0.3071,0.3078,0.3084,0.3088,0.3127,0.3137,0.3023,0.3023,0.3023,0,0,0.2812,0.2832,0.2839,0.2876,0.2895,0.2924,0.2918,0.2948,0.2972,0.2958,0.2989,0.3002,0.3013,0.305,0.3065,0.3046,0.3123,0.3089,0.3094,0.3094,0.3132,0.3143,0.3153,0.3025,0.3025,0.3024,0,0,0.2822,0.2838,0.2855,0.2884,0.2923,0.2939,0.2951,0.2981,0.2995,0.3029,0.3031,0.3061,0.3083,0.3103,0.3114,0.317,0.3163,0.3177,0.3209,0.3247,0.3256,0.3264,0.3297,0.3308,0.3176,0.3176,0.3176,0,0.2821,0.2843,0.2868,0.2898,0.2921,0.2947,0.2974,0.3,0.3035,0.3056,0.3045,0.3105,0.311,0.3165,0.3185,0.3186,0.3204,0.3172,0.3255,0.3264,0.3271,0.3302,0.3313,0.3179,0.3179,0.3178,0.3178,0,0.2844,0.2866,0.2883,0.2925,0.2957,0.2987,0.3029,0.3062,0.3078,0.3101,0.3159,0.3175,0.321,0.3221,0.3217,0.3283,0.3278,0.3262,0.323,0.3286,0.3315,0.3326,0.3183,0.3182,0.3181,0.318,0,0,0.2828,0.2886,0.289,0.291,0.2972,0.2997,0.3054,0.3108,0.3141,0.3182,0.3228,0.3273,0.3285,0.3299,0.3307,0.3337,0.3407,0.3324,0.3324,0.3349,0.3495,0.3489,0.3499,0.3407,0.3409,0.341,0.3496,0,0.2837,0.288,0.2913,0.2957,0.2983,0.3034,0.3079,0.3136,0.318,0.3234,0.3276,0.3321,0.3315,0.3335,0.337,0.3402,0.3437,0.3385,0.3442,0.3444,0.3427,0.3512,0.3239,0.3293,0.3506,0.3508,0.3509,0,0.2844,0.2873,0.2909,0.2966,0.2983,0.3014,0.3091,0.3138,0.323,0.3267,0.3333,0.3368,0.3441,0.3412,0.3505,0.3475,0.3491,0.3506,0.3509,0.3492,0.3458,0.3271,0.3304,0.3527,0.3526,0.3525,0.3523,0,0.2807,0.2867,0.2889,0.2911,0.2984,0.3012,0.3054,0.3142,0.3199,0.3292,0.3354,0.3427,0.3488,0.3522,0.3577,0.3544,0.367,0.3623,0.3634,0.3633,0.3407,0.3383,0.3681,0.3681,0.3681,0.3681,0.3681,0,0.2797,0.2815,0.2868,0.2882,0.2914,0.2979,0.3031,0.3091,0.3199,0.327,0.3365,0.3446,0.3522,0.3609,0.3615,0.3683,0.3709,0.3664,0.3666,0.3419,0.3396,0.3594,0.3583,0.3684,0.3683,0.3683,0.3682,0,0.2752,0.2788,0.2813,0.2876,0.2894,0.2915,0.3014,0.3059,0.3177,0.3281,0.3322,0.3493,0.3606,0.3685,0.3758,0.3751,0.3789,0.3798,0.351,0.3478,0.371,0.37,0.3812,0.3813,0.3813,0.3814,0.3814,0,0.2732,0.2739,0.2787,0.2798,0.2822,0.2869,0.2904,0.3021,0.3084,0.3299,0.3348,0.3528,0.3631,0.3782,0.3777,0.3815,0.3845,0.3585,0.3472,0.3738,0.3729,0.3718,0.3708,0.3183,0.3179,0.3175,0.3172,0,0.2697,0.2707,0.2727,0.2752,0.2777,0.2806,0.2871,0.292,0.3068,0.3185,0.3339,0.345,0.3622,0.3568,0.3659,0.3624,0.3556,0.3511,0.3864,0.3212,0.3158,0.3145,0.3153,0.3137,0.314,0.3143,0.3145,0.3146,0.2667,0.2664,0.2693,0.2707,0.2728,0.2739,0.2736,0.2823,0.2916,0.3039,0.3208,0.3281,0.3361,0.3371,0.3287,0.322,0.3456,0.3291,0.3297,0.3308,0.3239,0.3192,0.3163,0.3167,0.317,0.3172,0.3175,0,0.264,0.2648,0.2655,0.2659,0.2637,0.2682,0.2711,0.2681,0.2729,0.2864,0.2968,0.281,0.2835,0.2889,0.2759,0.2795,0.2687,0.2665,0.2493,0.2534,0.257,0.2454,0.2174,0.217,0.2167,0.2163,0,0,0.2632,0.2617,0.2612,0.2565,0.2566,0.2508,0.2496,0.246,0.2502,0.2487,0.2503,0.2729,0.2859,0.2482,0.2456,0.2293,0.2373,0.2198,0.3018,0.2861,0.289,0.2974,0.2853,0,0,0,0,0]},{"header":{"parameterUnit":"m.s-1","parameterCategory":2,"la1":30.2991,"la2":30.254,"lo1":-89.0895,"lo2":-89.0444,"dy":0.0017,"dx":0.0017,"nx":28,"ny":28,"refTime":"2025-05-01T03:00:00:Z","depth":"2","parameterNumber":3,"parameterNumberName":"V-component_of_CURRENTS"},"data":[0,0,0,0,0,0,0,0,0,0,0,0,0,0,0,0,0,0,0,0,0,0,0,0,0,0,0,0,0,0,0,0,0,0,0,0,0,0,0,0,0,0,0,0,0,0,0,0,0,0,0,0,0,0,0,0,0,0,0.0188,0.0187,0,0.0118,0.0117,0.0116,0.0066,0.0066,0.0066,0.0066,-0.0047,-0.005,-0.0053,0,0,0,0,0,0,0,0,0,0,0,0,0,0.0214,0.0214,0.0188,0.0187,0.0186,0.0118,0.0117,0.0116,0.0066,0.0066,0.0066,0.0065,-0.0047,-0.005,-0.0053,0,0,0,0,0,0,0,0,0,0,0,0,0,0.0178,0.0214,0.0188,0.0155,0.0151,0.0119,0.0117,0.0116,0.0066,0.0066,0.0066,0.0065,-0.0045,-0.005,-0.0054,-0.0071,0,0,-0.0066,-0.0068,0,0,0,0,0,0,0,0,0.018,0.0177,0.016,0.0157,0.0153,0.0102,0.0085,0.0052,0.0067,0.0097,0.0066,0.0065,-0.0,-0.0008,-0.0022,-0.0077,-0.0082,-0.0067,-0.0069,-0.0071,-0.0072,0,0,0,0,0,0,0,0.0183,0.0179,0.0159,0.016,0.0155,0.0121,0.0116,0.0078,0.0049,0.0094,0.0091,0.0086,-0.0003,-0.0018,-0.0025,-0.0083,-0.0067,-0.007,-0.0073,-0.0074,-0.0157,-0.0156,0,0,0,0,0,0,0.0199,0.0182,0.0161,0.0157,0.0168,0.0122,0.0116,0.0117,0.0051,0.0041,0.0086,0.0084,-0.0011,-0.002,-0.0029,-0.0038,-0.0071,-0.0075,-0.0077,-0.0157,-0.0157,-0.0156,0,0,0,0,0,0,0.0199,0.0198,0.0164,0.0168,0.0162,0.0122,0.0124,0.0116,0.0104,0.0045,0.0034,0.0082,-0.0011,-0.0023,-0.0054,-0.0043,-0.0077,-0.008,-0.0157,-0.0157,-0.0157,-0.0066,0,0,0,0,0,0,0.0201,0.0199,0.0204,0.017,0.0162,0.0156,0.0124,0.0115,0.0102,0.0098,0.0038,0.0027,-0.0012,-0.0048,-0.0058,-0.005,-0.0084,-0.0158,-0.0157,-0.0157,-0.0069,-0.0063,-0.0057,0,0,0,0,0,0.0202,0.0219,0.0205,0.0203,0.0172,0.0157,0.015,0.0118,0.0102,0.0104,0.0063,0.0029,-0.0052,-0.0051,-0.0063,-0.0056,-0.0158,-0.0157,-0.0157,-0.0072,-0.0064,-0.0057,0,0,0,0,0,0,0.0231,0.0214,0.0199,0.0209,0.0188,0.0149,0.0149,0.0125,0.0094,0.0091,0.0033,0.0019,-0.0005,-0.0043,-0.004,-0.0079,-0.0111,-0.0113,-0.0043,-0.0035,-0.0029,-0.0008,-0.0087,0,0,0,0,0,0.0242,0.0249,0.0223,0.0229,0.0224,0.0187,0.0176,0.0157,0.0125,0.0111,0.007,0.0026,-0.0013,-0.0032,-0.0072,-0.0091,-0.0129,-0.0096,-0.0089,-0.0083,-0.0076,-0.0124,-0.0121,-0.0154,-0.0154,-0.0154,0,0,0.0253,0.0245,0.0248,0.0235,0.0217,0.0222,0.0179,0.0173,0.0175,0.0103,0.0094,0.0046,-0.0013,-0.0034,-0.0048,-0.0064,-0.0093,-0.0083,-0.0077,-0.0073,-0.0123,-0.012,-0.0117,-0.0154,-0.0154,-0.0154,0,0,0.0287,0.0276,0.0296,0.0288,0.0272,0.0251,0.0254,0.0223,0.0207,0.0189,0.0139,0.0102,0.0046,0.0009,-0.002,-0.0003,-0.0058,-0.0018,0.0032,-0.0015,-0.0012,-0.001,-0.0044,-0.0046,-0.0013,-0.0013,-0.0013,0,0.03,0.0324,0.0297,0.0316,0.0319,0.0271,0.0296,0.0272,0.0234,0.0226,0.0199,0.0118,0.0067,0.0038,0.0042,0.0013,-0.002,0.0011,-0.0005,-0.0004,-0.0004,-0.0039,-0.0042,-0.0009,-0.0009,-0.001,-0.001,0,0.0351,0.0368,0.0381,0.0391,0.0389,0.0402,0.0374,0.0366,0.0337,0.0308,0.0274,0.0202,0.0156,0.013,0.0089,0.0068,0.0044,0.001,-0.0019,0.0005,-0.0034,-0.0039,-0.0002,-0.0004,-0.0005,-0.0006,0,0,0.0384,0.0413,0.0417,0.0442,0.0435,0.0443,0.0447,0.0439,0.0446,0.039,0.0391,0.0311,0.0268,0.0233,0.0173,0.0128,0.01,0.0077,0.0073,0.0054,0.0006,-0.001,-0.0018,0.0063,0.0062,0.0061,-0.0017,0,0.0431,0.0493,0.0489,0.0543,0.0574,0.0545,0.0557,0.054,0.0509,0.0495,0.0411,0.0384,0.0309,0.029,0.0232,0.0133,0.0089,0.0125,-0.0024,-0.0028,-0.0037,-0.0023,-0.0012,-0.0081,-0.0022,-0.0023,-0.0024,0,0.0481,0.052,0.0587,0.0635,0.0646,0.0665,0.0682,0.0685,0.0645,0.0619,0.0567,0.0504,0.0432,0.0364,0.021,0.0237,0.0135,0.0051,0.0045,-0.0005,-0.0053,-0.01,-0.0093,-0.0033,-0.0033,-0.0032,-0.0031,0,0.0528,0.0588,0.0649,0.0664,0.0704,0.0726,0.0739,0.0721,0.0746,0.0695,0.0708,0.0596,0.0558,0.041,0.024,0.0225,0.007,0.0025,-0.0086,-0.0088,-0.0125,-0.0129,-0.008,-0.008,-0.008,-0.008,-0.0079,0,0.058,0.0629,0.0677,0.0712,0.0787,0.0786,0.0851,0.0837,0.0845,0.0893,0.0779,0.0789,0.0567,0.0457,0.0281,0.0091,0.01,-0.0071,-0.0109,-0.0092,-0.0092,-0.0093,-0.0093,-0.0083,-0.0082,-0.0081,-0.0081,0,0.0616,0.0647,0.0727,0.0789,0.0813,0.0863,0.0942,0.099,0.0977,0.1037,0.1034,0.0936,0.0788,0.0568,0.0328,0.0162,-0.0032,-0.0103,-0.006,-0.0092,-0.017,-0.0165,-0.0235,-0.0236,-0.0237,-0.0238,-0.0238,0,0.0641,0.0685,0.0785,0.0843,0.0874,0.0954,0.1018,0.1045,0.1109,0.1138,0.1181,0.1065,0.1008,0.065,0.0319,0.0014,-0.0025,-0.0174,-0.0209,-0.0155,-0.0186,-0.0179,-0.0173,-0.0223,-0.0223,-0.0224,-0.0224,0,0.0688,0.0723,0.0791,0.0917,0.1001,0.1105,0.12,0.1276,0.1324,0.1384,0.143,0.1389,0.1053,0.0733,0.0306,0.009,-0.0129,-0.0192,-0.0155,-0.0179,-0.0149,-0.0178,-0.0171,-0.0228,-0.0228,-0.0227,-0.0227,-0.0227,0.0723,0.0783,0.0883,0.1002,0.1108,0.1243,0.1341,0.1452,0.1577,0.1666,0.1614,0.1556,0.1181,0.0633,0.0252,-0.0154,-0.0134,-0.0281,-0.0278,-0.0274,-0.0252,-0.0226,-0.0314,-0.0314,-0.0314,-0.0314,-0.0314,0,0.0772,0.0854,0.0967,0.1116,0.1239,0.1293,0.1462,0.1555,0.1714,0.1787,0.1819,0.1468,0.1111,0.069,0.009,-0.0261,-0.0296,-0.0374,-0.0342,-0.0335,-0.033,-0.031,-0.0388,-0.0389,-0.039,-0.0391,0,0,0.0805,0.0915,0.0981,0.1194,0.1312,0.1488,0.1592,0.1717,0.1804,0.1863,0.1836,0.1748,0.1245,0.0802,0.0306,-0.0036,-0.0101,-0.0109,-0.0014,0.0088,0.0098,-0.0247,-0.0204,0,0,0,0,0]}],[{"header":{"parameterUnit":"m.s-1","parameterCategory":2,"la1":30.2991,"la2":30.254,"lo1":-89.0895,"lo2":-89.0444,"dy":0.0017,"dx":0.0017,"nx":28,"ny":28,"refTime":"2025-05-01T03:00:00:Z","depth":"4","parameterNumber":2,"parameterNumberName":"U-component_of_CURRENTS"},"data":[0,0,0,0,0,0,0,0,0,0,0,0,0,0,0,0,0,0,0,0,0,0,0,0,0,0,0,0,0,0,0,0,0,0,0,0,0,0,0,0,0,0,0,0,0,0,0,0,0,0,0,0,0,0,0,0,0,0,0.1862,0.1863,0,0.1945,0.1946,0.1946,0.2012,0.2013,0.2014,0.2015,0.2111,0.2113,0.2115,0,0,0,0,0,0,0,0,0,0,0,0,0,0.1755,0.1757,0.1862,0.1863,0.1865,0.1945,0.1946,0.1946,0.2012,0.2013,0.2014,0.2015,0.2111,0.2113,0.2115,0,0,0,0,0,0,0,0,0,0,0,0,0,0.1814,0.1757,0.1862,0.1909,0.1914,0.1945,0.1946,0.1947,0.2012,0.2013,0.2015,0.2016,0.211,0.2112,0.2115,0.2104,0,0,0.2123,0.2124,0,0,0,0,0,0,0,0,0.181,0.1817,0.1901,0.1906,0.1912,0.1972,0.1943,0.2001,0.2012,0.1972,0.2015,0.2017,0.2067,0.2073,0.2082,0.2109,0.2113,0.2123,0.2125,0.2126,0.2127,0,0,0,0,0,0,0,0.1806,0.1814,0.1892,0.1902,0.1909,0.1924,0.1934,0.1954,0.2009,0.1976,0.1981,0.1994,0.2069,0.2079,0.2084,0.2114,0.2123,0.2125,0.2127,0.2128,0.227,0.2272,0,0,0,0,0,0,0.18,0.181,0.189,0.1895,0.1866,0.1925,0.1936,0.1949,0.2009,0.202,0.1993,0.1997,0.2074,0.2081,0.2088,0.2197,0.2126,0.2128,0.213,0.2267,0.227,0.2272,0,0,0,0,0,0,0.1797,0.1806,0.1886,0.1856,0.1868,0.1926,0.194,0.195,0.2002,0.2022,0.2033,0.2039,0.2075,0.2084,0.215,0.2196,0.2129,0.2132,0.2265,0.2268,0.2271,0.2338,0,0,0,0,0,0,0.1794,0.1805,0.183,0.1856,0.187,0.1933,0.194,0.1951,0.2006,0.2013,0.2065,0.2073,0.2077,0.2146,0.2153,0.2199,0.2134,0.2262,0.2266,0.227,0.2333,0.2343,0.2352,0,0,0,0,0,0.179,0.1812,0.1831,0.1842,0.1897,0.1934,0.1943,0.1986,0.2007,0.2036,0.2078,0.2073,0.2177,0.215,0.2157,0.2205,0.226,0.2265,0.227,0.2329,0.2341,0.2352,0,0,0,0,0,0,0.1781,0.1822,0.1843,0.1879,0.1919,0.1947,0.1984,0.2008,0.2062,0.2083,0.2098,0.2109,0.2185,0.2186,0.2155,0.2259,0.2219,0.2226,0.2262,0.2273,0.2283,0.2279,0.2136,0,0,0,0,0,0.1789,0.1822,0.1859,0.1894,0.1917,0.1957,0.1986,0.2016,0.2057,0.2084,0.2121,0.2163,0.2202,0.2232,0.2264,0.2316,0.2317,0.2354,0.2363,0.2371,0.2375,0.2417,0.243,0.2289,0.2289,0.2289,0,0,0.1795,0.1825,0.1845,0.1896,0.1932,0.1969,0.1979,0.2035,0.2078,0.2084,0.2168,0.22,0.2225,0.229,0.2324,0.2302,0.2414,0.2377,0.2384,0.2383,0.2423,0.2437,0.2449,0.2292,0.2292,0.2291,0,0,0.1811,0.1854,0.1883,0.1921,0.1983,0.2007,0.2031,0.2086,0.213,0.2199,0.2221,0.2282,0.2342,0.2371,0.239,0.2469,0.2463,0.2489,0.2535,0.2577,0.2588,0.2598,0.2622,0.2634,0.2493,0.2493,0.2493,0,0.1822,0.186,0.1899,0.1938,0.1976,0.2027,0.2067,0.2113,0.2187,0.2227,0.224,0.2352,0.2376,0.245,0.2484,0.249,0.2509,0.2488,0.2588,0.2598,0.2607,0.2629,0.2641,0.2497,0.2497,0.2496,0.2496,0,0.1846,0.1895,0.192,0.1984,0.2029,0.2077,0.2137,0.2201,0.2258,0.2299,0.2402,0.2441,0.2507,0.253,0.2533,0.262,0.261,0.2594,0.2554,0.2625,0.2644,0.2655,0.2503,0.2501,0.25,0.2499,0,0,0.182,0.1917,0.193,0.1971,0.2061,0.2095,0.2181,0.2261,0.2324,0.2406,0.2484,0.2564,0.2599,0.2622,0.2645,0.2683,0.2766,0.2676,0.2676,0.2691,0.2859,0.2692,0.2688,0.2775,0.2777,0.2779,0.2847,0,0.1832,0.1902,0.1952,0.2031,0.2072,0.2153,0.2222,0.2308,0.2386,0.2476,0.2543,0.2625,0.263,0.2677,0.2722,0.2761,0.28,0.2749,0.2795,0.2796,0.2632,0.2696,0.2786,0.2855,0.2858,0.2859,0.2861,0,0.1831,0.1883,0.1955,0.2058,0.2086,0.2145,0.227,0.234,0.2469,0.2534,0.2632,0.2687,0.2784,0.2765,0.2869,0.2843,0.2862,0.2876,0.2879,0.2704,0.265,0.277,0.288,0.2879,0.2877,0.2876,0.2875,0,0.1776,0.1882,0.1941,0.1978,0.21,0.2162,0.2237,0.2364,0.2442,0.2582,0.2659,0.2762,0.2842,0.2886,0.294,0.2919,0.3031,0.2995,0.286,0.2848,0.2947,0.2935,0.3056,0.3056,0.3056,0.3056,0.3056,0,0.1747,0.1801,0.1928,0.196,0.2043,0.2142,0.2246,0.2337,0.248,0.2564,0.2692,0.2768,0.2883,0.2962,0.2973,0.2955,0.3063,0.2875,0.2857,0.2975,0.2965,0.2955,0.2942,0.3058,0.3058,0.3057,0.3057,0,0.1674,0.1757,0.1833,0.197,0.2019,0.2081,0.2247,0.2316,0.2469,0.2587,0.2642,0.2813,0.2902,0.2989,0.3065,0.2989,0.2985,0.295,0.3084,0.3071,0.2764,0.2755,0.2787,0.2782,0.2778,0.2774,0.2771,0,0.1638,0.1671,0.1821,0.187,0.194,0.2051,0.2122,0.2288,0.236,0.2584,0.2621,0.2787,0.2873,0.2854,0.2946,0.2954,0.2923,0.2898,0.281,0.2758,0.2739,0.2736,0.2733,0.2764,0.2763,0.2761,0.276,0,0.1567,0.1636,0.1698,0.1798,0.1883,0.1962,0.2079,0.212,0.23,0.2467,0.2539,0.2594,0.2694,0.2741,0.2782,0.2778,0.2894,0.285,0.2858,0.2775,0.273,0.2715,0.2717,0.2745,0.2747,0.2748,0.2749,0,0.1515,0.1538,0.1629,0.1703,0.1802,0.1839,0.1917,0.1999,0.209,0.2326,0.2339,0.251,0.266,0.2652,0.2682,0.2675,0.2624,0.2523,0.2547,0.2565,0.2461,0.2369,0.2262,0,0,0,0,0,0.145,0.1461,0.1526,0.1588,0.1681,0.1737,0.187,0.1952,0.2124,0.2116,0.2222,0.2295,0.2356,0.2445,0.2392,0.2584,0.2635,0.251,0.2531,0.2659,0.2677,0.2574,0,0,0,0,0,0,0.1398,0.1454,0.1479,0.1478,0.1501,0.1579,0.1657,0.1776,0.178,0.1966,0.2012,0.2153,0.2248,0.236,0.2346,0.2372,0.2337,0.2617,0.2611,0.2649,0.2665,0.268,0.258,0,0,0,0,0]},{"header":{"parameterUnit":"m.s-1","parameterCategory":2,"la1":30.2991,"la2":30.254,"lo1":-89.0895,"lo2":-89.0444,"dy":0.0017,"dx":0.0017,"nx":28,"ny":28,"refTime":"2025-05-01T03:00:00:Z","depth":"4","parameterNumber":3,"parameterNumberName":"V-component_of_CURRENTS"},"data":[0,0,0,0,0,0,0,0,0,0,0,0,0,0,0,0,0,0,0,0,0,0,0,0,0,0,0,0,0,0,0,0,0,0,0,0,0,0,0,0,0,0,0,0,0,0,0,0,0,0,0,0,0,0,0,0,0,0,0.0075,0.0074,0,0.0031,0.003,0.003,-0.0007,-0.0007,-0.0007,-0.0008,-0.0094,-0.0096,-0.0098,0,0,0,0,0,0,0,0,0,0,0,0,0,0.0084,0.0084,0.0075,0.0074,0.0074,0.0031,0.003,0.003,-0.0007,-0.0007,-0.0007,-0.0008,-0.0093,-0.0096,-0.0098,0,0,0,0,0,0,0,0,0,0,0,0,0,0.0063,0.0084,0.0075,0.0051,0.0049,0.0031,0.003,0.0029,-0.0007,-0.0007,-0.0008,-0.0008,-0.0092,-0.0095,-0.0098,-0.0108,0,0,-0.0108,-0.0109,0,0,0,0,0,0,0,0,0.0064,0.0063,0.0055,0.0053,0.005,0.0018,0.0002,-0.0018,-0.0006,0.0013,-0.0008,-0.0008,-0.0059,-0.0065,-0.0073,-0.0112,-0.0116,-0.0108,-0.011,-0.0111,-0.0112,0,0,0,0,0,0,0,0.0066,0.0064,0.0056,0.0055,0.0052,0.0028,0.0025,-0.0002,-0.0021,0.0012,0.0009,0.0006,-0.0061,-0.007,-0.0076,-0.0117,-0.0108,-0.011,-0.0112,-0.0114,-0.0171,-0.0171,0,0,0,0,0,0,0.0076,0.0066,0.0058,0.0055,0.0057,0.0029,0.0025,0.0028,-0.002,-0.0028,0.0006,0.0004,-0.0065,-0.0072,-0.0079,-0.0083,-0.0111,-0.0114,-0.0116,-0.0171,-0.0171,-0.0171,0,0,0,0,0,0,0.0077,0.0076,0.006,0.006,0.0056,0.0029,0.0033,0.0027,0.002,-0.0024,-0.0032,0.0004,-0.0065,-0.0075,-0.0096,-0.0087,-0.0115,-0.0118,-0.0172,-0.0171,-0.0171,-0.0097,0,0,0,0,0,0,0.0077,0.0077,0.0082,0.0061,0.0057,0.0058,0.0033,0.0027,0.0019,0.0016,-0.0028,-0.0037,-0.0067,-0.0091,-0.0099,-0.0091,-0.012,-0.0172,-0.0171,-0.0171,-0.01,-0.0094,-0.0089,0,0,0,0,0,0.0078,0.0092,0.0083,0.0082,0.0066,0.0059,0.0054,0.0032,0.0019,0.0022,-0.0008,-0.0035,-0.0094,-0.0093,-0.0103,-0.0096,-0.0172,-0.0172,-0.0171,-0.0102,-0.0095,-0.009,0,0,0,0,0,0,0.0097,0.0089,0.0079,0.0089,0.0077,0.0053,0.0054,0.0038,0.0017,0.0013,-0.003,-0.0041,-0.0057,-0.0087,-0.0085,-0.0112,-0.0138,-0.0139,-0.0083,-0.0077,-0.0072,-0.0057,-0.0123,0,0,0,0,0,0.0105,0.0114,0.0098,0.0105,0.0104,0.0079,0.0073,0.006,0.0039,0.0029,-0.0,-0.0034,-0.0062,-0.0076,-0.0105,-0.0118,-0.0152,-0.0121,-0.0115,-0.011,-0.0105,-0.015,-0.0148,-0.0169,-0.0169,-0.0169,0,0,0.0113,0.011,0.0114,0.011,0.0099,0.0107,0.0074,0.0073,0.0077,0.0023,0.0019,-0.0016,-0.0061,-0.0074,-0.0085,-0.0097,-0.0122,-0.011,-0.0105,-0.0103,-0.0149,-0.0148,-0.0146,-0.0168,-0.0168,-0.0168,0,0,0.0138,0.0134,0.0151,0.0149,0.0141,0.0129,0.0132,0.0113,0.0103,0.0094,0.0056,0.0028,-0.0011,-0.0039,-0.0061,-0.0045,-0.0093,-0.0055,-0.0016,-0.0059,-0.0058,-0.0057,-0.0091,-0.0094,-0.0052,-0.0052,-0.0052,0,0.0147,0.0169,0.0153,0.017,0.0176,0.0144,0.0165,0.0151,0.0127,0.0123,0.0103,0.0044,0.0006,-0.0015,-0.001,-0.0032,-0.0062,-0.0034,-0.0052,-0.0052,-0.0052,-0.0088,-0.0092,-0.0048,-0.0049,-0.0049,-0.0049,0,0.0185,0.0203,0.0214,0.0228,0.0231,0.0244,0.0229,0.0226,0.0208,0.0189,0.0165,0.0112,0.0078,0.0059,0.0029,0.001,-0.0012,-0.0039,-0.0064,-0.0045,-0.0084,-0.009,-0.0043,-0.0044,-0.0045,-0.0046,0,0,0.0202,0.0236,0.024,0.0263,0.0267,0.0276,0.0286,0.0285,0.0292,0.0254,0.0256,0.0199,0.0166,0.014,0.0094,0.0054,0.0024,0.0013,0.0009,-0.0013,-0.0065,-0.0075,-0.0083,-0.0006,-0.0007,-0.0007,-0.0088,0,0.0236,0.0288,0.0294,0.0342,0.0368,0.0355,0.0371,0.0364,0.0343,0.0335,0.0272,0.0255,0.0198,0.0185,0.0136,0.0052,0.0012,0.0049,-0.0086,-0.009,-0.0096,-0.0089,-0.0009,-0.0092,-0.0094,-0.0095,-0.0096,0,0.027,0.0304,0.0362,0.0411,0.0422,0.0445,0.0466,0.0475,0.0449,0.0433,0.0394,0.0346,0.0288,0.0237,0.0104,0.013,0.0043,-0.0028,-0.0033,-0.0072,-0.011,-0.0119,-0.0106,-0.0106,-0.0105,-0.0104,-0.0103,0,0.0294,0.0352,0.0404,0.042,0.0465,0.049,0.0509,0.0504,0.0525,0.0494,0.0502,0.0415,0.0382,0.0259,0.0117,0.011,-0.0036,-0.0066,-0.0157,-0.0159,-0.0159,-0.0159,-0.016,-0.016,-0.0159,-0.0159,-0.0159,0,0.0327,0.0368,0.0423,0.0453,0.0519,0.0533,0.0591,0.0588,0.0601,0.0633,0.0557,0.0552,0.0386,0.0285,0.0142,-0.002,-0.0018,-0.0148,-0.0181,-0.0125,-0.0121,-0.0163,-0.0162,-0.0162,-0.0162,-0.0161,-0.016,0,0.0338,0.0374,0.0441,0.0506,0.0534,0.0577,0.0657,0.0694,0.0698,0.0735,0.0735,0.0656,0.0523,0.0351,0.0148,0.0026,-0.0137,-0.0197,-0.0111,-0.0139,-0.0238,-0.0233,-0.0304,-0.0305,-0.0306,-0.0306,-0.0307,0,0.0348,0.0384,0.0479,0.0527,0.0561,0.0635,0.0691,0.0731,0.0774,0.0796,0.0814,0.0718,0.0639,0.036,0.0159,-0.011,-0.0155,-0.0239,-0.0252,-0.0228,-0.0253,-0.0247,-0.024,-0.0308,-0.0309,-0.0309,-0.0309,0,0.0362,0.0397,0.045,0.0552,0.0626,0.0713,0.0794,0.0839,0.0887,0.0904,0.0886,0.0752,0.0601,0.0369,0.0164,-0.0035,-0.0186,-0.0249,-0.0249,-0.0262,-0.0235,-0.0257,-0.025,-0.0312,-0.0312,-0.0311,-0.0311,0,0.0365,0.0402,0.0476,0.0566,0.0662,0.0753,0.0806,0.0868,0.0917,0.0948,0.0937,0.0783,0.0696,0.0408,0.0214,0.0023,-0.0036,-0.0109,-0.0117,-0.0116,-0.0047,0.0017,-0.0008,0,0,0,0,0,0.0359,0.0401,0.0486,0.0584,0.0684,0.0746,0.0855,0.0903,0.0964,0.0965,0.0958,0.0822,0.0552,0.0432,0.0239,0.0166,-0.0092,-0.007,-0.0184,-0.0329,-0.0325,-0.0278,0,0,0,0,0,0,0.0351,0.0419,0.0472,0.0582,0.0656,0.0767,0.0844,0.0894,0.0898,0.0933,0.0796,0.0756,0.0489,0.066,0.0229,0.0171,0.0068,-0.0187,-0.0192,-0.0331,-0.0328,-0.0325,-0.0275,0,0,0,0,0]}]]